This is the latest recevied weather packets stored in our database for station/object JS1SZZ-13. If no packets are shown the sender has not sent any weather packets the latest 10 day(s).
| Time | Temp. | Humidity | Pressure | Rain* | Wind** | Luminosity | Snow |
|---|---|---|---|---|---|---|---|
| 1788136223 | 76° F | 77% | 760.3 mmHg | 0 in | - | - | - |
| 1788135322 | 76° F | 78% | 760 mmHg | 0 in | - | - | - |
| 1788134423 | 76° F | 81% | 759.9 mmHg | 0 in | - | - | - |
| 1788133523 | 74° F | 83% | 759.9 mmHg | 0 in | - | - | - |
| 1788132622 | 73° F | 86% | 759.9 mmHg | 0 in | - | - | - |
| 1788131723 | 73° F | 87% | 759.6 mmHg | 0 in | - | - | - |
| 1788130824 | 73° F | 88% | 759.6 mmHg | 0 in | - | - | - |
| 1788129922 | 72° F | 90% | 759.7 mmHg | 0 in | - | - | - |
| 1788128859 | 72° F | 91% | 759.7 mmHg | 0 in | - | - | - |
| 1788127959 | 72° F | 91% | 759.6 mmHg | 0 in | - | - | - |
| 1788127059 | 71° F | 92% | 759.4 mmHg | 0 in | - | - | - |
| 1788126158 | 70° F | 90% | 759.3 mmHg | 0 in | - | - | - |
| 1788125258 | 70° F | 90% | 759.3 mmHg | 0 in | - | - | - |
| 1788124359 | 69° F | 90% | 759.3 mmHg | 0 in | - | - | - |
| 1788123458 | 69° F | 90% | 759.1 mmHg | 0 in | - | - | - |
| 1788122560 | 69° F | 91% | 759.1 mmHg | 0 in | - | - | - |
| 1788121659 | 68° F | 91% | 758.8 mmHg | 0 in | - | - | - |
| 1788120758 | 69° F | 90% | 758.6 mmHg | 0 in | - | - | - |
| 1788119860 | 68° F | 91% | 758.5 mmHg | 0 in | - | - | - |
| 1788118959 | 68° F | 91% | 758.4 mmHg | 0 in | - | - | - |
| 1788118058 | 69° F | 90% | 758.3 mmHg | 0 in | - | - | - |
| 1788117159 | 69° F | 90% | 758.3 mmHg | 0 in | - | - | - |
| 1788116259 | 69° F | 90% | 758.4 mmHg | 0 in | - | - | - |
| 1788115358 | 69° F | 90% | 758.3 mmHg | 0 in | - | - | - |
| 1788114458 | 69° F | 90% | 758.2 mmHg | 0 in | - | - | - |
* Rain latest hour (hover to see other rain measurements)
** Current wind speed in m/s (hover to see current wind gust speed)